x

8461490 - New London, Ct (nlnc3) Weather Station

4:54 - Wed 24th Aug 2016 All times are EDT. -4 hours from GMT.

  • Wind
    9mph, 11mph gusts
  • Sea Temp 74°f
  • Aire Temp 76°f
  • Sea Pressure 1022.4mb
  • 8461490 - New London, Ct
  • 8461490 - New London, Ct

More Historic Weather Station data

Upgrade to MSW Pro to gain access to the past 30 days of data for over 8000 Wavebouys and Weather Stations around the globe.

Join Pro

Comparision Forecast

View Surf forecast
   
mié 08/24 4:54 9 11 mph 1022.4mb 74f 76f
4:48 9 11 mph 1022.4mb 74f 76f
4:42 10 13 mph 1022.5mb 73f 75f
4:36 11 13 mph 1022.5mb 73f 75f
4:30 11 13 mph 1022.5mb 73f 76f
4:24 11 13 mph 1022.6mb 73f 75f
4:18 11 13 mph 1022.7mb 72f 75f
4:12 11 14 mph 1022.7mb 72f 76f
4:06 11 14 mph 1022.6mb 72f 76f
4:00 11 14 mph 1022.7mb 71f 76f
3:54 10 13 mph 1022.8mb 71f 77f
3:48 9 13 mph 1022.9mb 72f 79f
3:42 8 13 mph 1022.9mb 73f 82f
3:36 9 13 mph 1023mb 73f 82f
3:30 9 14 mph 1022.9mb 73f 82f
3:24 10 13 mph 1023mb 73f 81f
3:18 10 14 mph 1023mb 74f 82f
3:12 11 14 mph 1023.1mb 73f 81f
3:06 11 15 mph 1023.1mb 73f 82f
3:00 11 14 mph 1023.2mb 73f 82f
2:54 10 14 mph 1023.1mb 73f 82f
2:48 10 13 mph 1023.2mb 71f 81f
2:42 6 13 mph 1023.2mb 71f 83f
2:36 9 13 mph 1023.3mb 71f 82f
2:30 9 15 mph 1023.3mb 72f 82f
2:24 9 13 mph 1023.3mb 71f 82f
2:18 7 10 mph 1023.3mb 72f 83f
2:12 9 11 mph 1023.5mb 72f 82f
2:06 8 10 mph 1023.5mb 72f 82f
2:00 6 11 mph 1023.7mb 72f 83f
1:54 8 13 mph 1023.8mb 72f 82f
1:48 9 13 mph 1023.8mb 72f 82f
1:42 9 14 mph 1023.9mb 72f 81f
1:36 8 15 mph 1023.8mb 72f 82f
1:30 9 13 mph 1023.8mb 72f 82f
1:24 9 14 mph 1023.8mb 72f 81f
1:18 10 14 mph 1023.8mb 72f 82f
1:12 8 11 mph 1023.7mb 72f 82f
1:06 8 11 mph 1023.7mb 72f 82f
1:00 7 11 mph 1023.7mb 73f 82f
12:54 9 11 mph 1023.7mb 73f 82f
12:48 7 13 mph 1023.7mb 73f 81f
12:42 9 13 mph 1023.7mb 72f 81f
12:36 7 13 mph 1023.8mb 72f 82f
12:30 9 11 mph 1023.9mb 73f 81f
12:24 9 13 mph 1023.8mb 73f 81f
12:18 7 10 mph 1023.8mb 73f 82f
12:12 8 9 mph 1023.7mb 71f 81f
12:06 7 10 mph 1023.7mb 71f 81f
12:00 9 13 mph 1023.7mb 71f 82f
11:54 7 13 mph 1023.8mb 71f 81f
11:48 6 9 mph 1023.9mb 71f 82f
11:42 3 8 mph 1024mb 71f 82f
11:36 6 9 mph 1024.1mb 71f 81f
11:30 6 8 mph 1024.3mb 71f 81f
11:24 6 8 mph 1024.4mb 71f 81f
11:18 3 9 mph 1024.5mb 71f 81f
11:12 3 8 mph 1024.5mb 73f 82f
11:06 6 10 mph 1024.6mb 73f 80f
11:00 7 11 mph 1024.7mb 72f 80f
10:54 5 9 mph 1024.9mb 71f 80f
10:48 5 9 mph 1024.9mb 71f 80f
10:42 5 9 mph 1025mb 71f 80f
10:36 6 8 mph 1025.1mb 71f 79f
10:30 6 9 mph 1025.1mb 71f 79f
10:24 6 8 mph 1025.1mb 71f 79f
10:18 6 9 mph 1025.1mb 72f 78f
10:12 6 7 mph 1025.1mb 72f 78f
10:06 6 8 mph 1025.1mb 72f 77f
10:00 3 7 mph 1025.1mb 72f 78f
9:54 2 6 mph 1025.1mb 73f 77f
9:48 1 3 mph 1025mb 73f 75f
9:42 1 2 mph 1025.1mb 73f 73f
9:36 1 3 mph 1025.1mb 73f 73f
9:30 2 5 mph 1025mb 73f 73f
9:24 3 5 mph 1025mb 73f 73f
9:18 3 5 mph 1024.9mb 73f 71f
9:12 3
mph
1024.9mb 73f 71f
9:06 2 3 mph 1025.1mb 73f 72f
9:00 2 3 mph 1025mb 73f 71f
8:54 2 3 mph 1025mb 73f 71f
8:48 2 5 mph 1025mb 73f 71f
8:42  -  3 mph 1024.9mb 73f 71f
8:36 2 3 mph 1025mb 73f 70f
8:30 2 3 mph 1025mb 73f 71f
8:24 2
mph
1025.1mb 73f 70f
8:18 2 3 mph 1025.1mb 73f 69f
8:12 2
mph
1025.2mb 73f 69f
8:06 1 2 mph 1025.2mb 73f 68f
8:00 2 5 mph 1025.2mb 73f 67f
7:54 2 6 mph 1025.2mb 73f 67f
7:48 5 6 mph 1025.3mb 73f 66f
7:42 5 6 mph 1025.3mb 73f 66f
7:36 5 6 mph 1025.3mb 73f 66f
7:30 3 5 mph 1025.3mb 73f 66f
7:24 2 3 mph 1025.3mb 72f 66f
7:18 2 5 mph 1025.2mb 73f 66f
7:12 3 5 mph 1025.2mb 73f 65f
7:06 5
mph
1025.2mb 73f 65f
7:00 3 5 mph 1025.1mb 72f 65f
6:54 5 6 mph 1025.1mb 72f 65f
6:48 6
mph
1025mb 72f 65f
6:42 5 6 mph 1024.9mb 72f 65f
6:36 2 3 mph 1024.8mb 72f 65f
6:30 3 5 mph 1024.7mb 72f 64f
6:24 2
mph
1024.6mb 72f 64f
6:18 2
mph
1024.5mb 73f 64f
6:12 1 2 mph 1024.4mb 73f 64f
6:06 1 5 mph 1024.5mb 73f 64f
6:00 3 5 mph 1024.5mb 73f 64f
5:54 2 3 mph 1024.6mb 73f 64f
5:48 2 3 mph 1024.6mb 73f 65f
5:42 3
mph
1024.5mb 73f 65f
5:36 2 3 mph 1024.5mb 73f 65f
5:30 2
mph
1024.5mb 73f 65f
5:24 1 2 mph 1024.4mb 73f 65f
5:18  -  1 mph 1024.4mb 73f 64f
5:12 1 2 mph 1024.4mb 73f 65f
5:06 2 3 mph 1024.3mb 73f 65f
5:00 2 5 mph 1024.3mb 73f 65f
4:54 3 5 mph 1024.3mb 73f 65f
4:48 2 5 mph 1024.3mb 73f 65f
4:42 3 5 mph 1024.3mb 73f 65f
4:36 2 3 mph 1024.3mb 73f 65f
4:30 2 3 mph 1024.3mb 73f 65f
4:24 2
mph
1024.2mb 73f 65f
4:18 2 3 mph 1024.2mb 73f 66f
4:12 2 3 mph 1024.3mb 73f 66f
4:06 1
mph
1024.4mb 73f 66f
4:00 1 2 mph 1024.5mb 73f 66f
3:54  -  1 mph 1024.5mb 73f 66f
3:48  -  1 mph 1024.5mb 73f 66f
3:42  -  1 mph 1024.4mb 73f 65f
3:36 1 2 mph 1024.4mb 72f 65f
3:30 1 2 mph 1024.4mb 72f 66f
3:24 1
mph
1024.5mb 72f 66f
3:18  -  2 mph 1024.5mb 72f 66f
3:12  -  2 mph 1024.6mb 72f 66f
3:06  -  3 mph 1024.5mb 72f 66f
3:00 2 3 mph 1024.6mb 72f 66f
2:54 1 2 mph 1024.6mb 72f 66f
2:48 1 2 mph 1024.6mb 72f -
2:42 1 2 mph 1024.7mb 72f -
2:36 1 2 mph 1024.7mb 72f -
2:30  -  1 mph 1024.7mb 72f 67f
2:24  -  1 mph 1024.6mb 72f 67f
2:18  -  1 mph 1024.7mb 72f 67f
2:12  -  1 mph 1024.8mb 72f 67f
2:06  -  1 mph 1024.8mb 72f 67f
2:00  -  mph 1024.9mb 72f 67f
1:54  -  1 mph 1024.9mb 72f 67f
1:48  -  2 mph 1025mb 72f 67f
1:42  -  2 mph 1025.1mb 72f 68f
1:36 2 3 mph 1025.1mb 72f 68f
1:30 1 3 mph 1025.1mb 72f 68f
1:24 2 3 mph 1025mb 72f 68f
1:18 2 3 mph 1025mb 72f 68f
1:12 2 5 mph 1025.2mb 72f 68f
1:06 2 3 mph 1025.2mb 72f 68f
1:00 2 3 mph 1025.1mb 72f 69f
12:54 1 2 mph 1025mb 72f 69f
12:48 2 5 mph 1024.9mb 72f 69f
12:42  -  2 mph 1025mb 73f 69f
12:36  -  2 mph 1025.1mb 73f 69f
12:30 1 3 mph 1025.2mb 73f 69f
12:24 2 5 mph 1025.1mb 73f 69f
12:18 2 3 mph 1025.1mb 73f 69f
12:12 2 3 mph 1025mb 72f 69f
12:06 2 5 mph 1024.9mb 73f 69f
12:00 2 5 mph 1024.8mb 73f 69f
mar 08/23 11:54 3 5 mph 1024.9mb 73f 69f
11:48 3 6 mph 1024.8mb 73f 69f
11:42 3 7 mph 1024.8mb 73f 69f
11:36 2 6 mph 1024.8mb 73f 69f
11:30 3 7 mph 1024.8mb 73f 70f
11:24 3 6 mph 1024.8mb 73f 70f
11:18 3 5 mph 1024.8mb 73f 70f
11:12 3 6 mph 1024.7mb 73f 70f
11:06 2 6 mph 1024.8mb 73f 70f
11:00 3 7 mph 1024.8mb 73f 70f
10:54 2 3 mph 1024.8mb 73f 70f
10:48 2 5 mph 1024.7mb 72f 70f
10:42 3 6 mph 1024.8mb 72f 70f
10:36 2 6 mph 1024.8mb 72f 70f
10:30 3 6 mph 1024.8mb 72f 70f
10:24 3 5 mph 1024.7mb 72f 70f
10:18 3 5 mph 1024.8mb 72f 70f
10:12 5 7 mph 1024.7mb 73f 70f
10:06 5 8 mph 1024.7mb 73f 70f
10:00 3 6 mph 1024.7mb 73f 70f
9:54 3 6 mph 1024.7mb 73f 70f
9:48 5 7 mph 1024.7mb 73f 70f
9:42 3 6 mph 1024.7mb 73f 70f
9:36 3 7 mph 1024.6mb 73f 70f
9:30 5 7 mph 1024.5mb 73f 71f
9:24 3 6 mph 1024.6mb 73f 71f
9:18  -  mph 1024.5mb 73f 71f
9:12  -  mph 1024.5mb 73f 71f
9:06  -  mph 1024.5mb 73f 71f
9:00  -  mph 1024.5mb 73f 71f
8:54  -  mph 1024.4mb 73f 71f
8:48 5 8 mph 1024.3mb 73f 71f
8:42 3 7 mph 1024.3mb 73f 71f
8:36 6 8 mph 1024.2mb 73f 71f
8:30  -  mph 1024.2mb 73f 71f
8:24  -  mph 1024.2mb 73f 71f
8:18  -  mph 1024.1mb 73f 72f
8:12  -  mph 1024mb 73f 72f
8:06  -  mph 1024mb 73f 72f
8:00 6 8 mph 1023.9mb 73f 72f
7:54 7 10 mph 1023.9mb 73f 72f
7:48 7 10 mph - 73f -
7:42 7 9 mph - 73f -
7:36 6 8 mph - 73f -
7:30 6 7 mph 1024mb 73f 73f
7:24 7 8 mph 1024mb 73f 74f
7:18  -  mph 1023.9mb 73f 74f
7:12  -  mph 1023.9mb 73f 74f
7:06  -  mph 1023.9mb 73f 74f
7:00 5 8 mph 1023.9mb 72f 74f
6:54 5 7 mph 1023.8mb 72f 74f
6:48  -  mph - 71f 74f
6:42  -  mph - 72f 74f
6:36  -  mph - 72f 74f
6:30 6 9 mph 1024mb 72f 75f
6:24 6 11 mph 1024mb 72f 75f
6:18 8 11 mph 1024mb 72f 75f
6:12 8 11 mph 1024.1mb 71f 75f
6:06 7 10 mph 1024.2mb 72f 76f
6:00  -  mph 1024.3mb 72f 76f
5:54  -  mph 1024.3mb 72f 75f
5:48 8 13 mph - 72f 76f
5:42 8 14 mph - 73f 76f
5:36 9 14 mph - 72f 76f
5:30 7 11 mph 1024.2mb 72f 77f
5:24 7 15 mph 1024.3mb 73f 77f
5:18 9 14 mph 1024.2mb 73f 76f
5:12 7 11 mph 1024.2mb 73f 77f
5:06 8 11 mph 1024.3mb 73f 77f
5:00 6 11 mph 1024.4mb 73f 77f
4:54 7 11 mph 1024.4mb 73f 76f
4:48 9 13 mph 1024.4mb 73f 77f
4:42 7 11 mph 1024.5mb 73f 76f
4:36 9 11 mph 1024.5mb 73f 76f
4:30 8 13 mph 1024.5mb 73f 76f
4:24 9 13 mph 1024.5mb 73f 76f
4:18 8 11 mph 1024.6mb 73f 76f
4:12 9 13 mph 1024.6mb 73f 76f
4:06 9 14 mph 1024.6mb 73f 76f
4:00 9 15 mph 1024.6mb 73f 76f
3:54 7 13 mph 1024.6mb 73f 76f
3:48 8 15 mph 1024.6mb 73f 76f
3:42 11 15 mph 1024.7mb 73f 76f
3:36 13 15 mph 1024.8mb 73f 76f
3:30 10 16 mph 1024.8mb 72f 75f
3:24 11 16 mph 1024.9mb 72f 75f
3:18 8 11 mph 1024.8mb 72f 76f
3:12 9 15 mph 1024.9mb 71f 76f
3:06 8 13 mph 1024.9mb 71f 76f
3:00 9 13 mph 1025mb 72f 76f
2:54 7 11 mph 1025mb 72f 76f
2:48 9 15 mph 1025.1mb 72f 74f
2:42 11 16 mph 1025.2mb 73f 75f
2:36 8 13 mph 1025.1mb 73f 75f
2:30 10 15 mph 1025.2mb 73f 75f
2:24 10 14 mph 1025.3mb 73f 75f
2:18 11 15 mph 1025.3mb 73f 75f
2:12 11 16 mph 1025.3mb 72f 74f
2:06 13 14 mph 1025.4mb 73f 74f
2:00 13 15 mph 1025.4mb 73f 74f
1:54 11 15 mph 1025.4mb 72f 74f
1:48 10 14 mph 1025.5mb 72f 75f
1:42 11 14 mph 1025.5mb 72f 74f
1:36 10 14 mph 1025.6mb 72f 74f
1:30 11 15 mph 1025.6mb 72f 74f
1:24 11 14 mph 1025.6mb 71f 73f
1:18 13 15 mph 1025.7mb 71f 72f
1:12 11 14 mph 1025.7mb 71f 72f
1:06 13 15 mph 1025.7mb 72f 72f
1:00 11 15 mph 1025.7mb 72f 73f
12:54 13 14 mph 1025.8mb 72f 71f
12:48 13 15 mph 1025.8mb 72f 72f
12:42 13 15 mph 1025.8mb 72f 71f
12:36 14 15 mph 1025.9mb 72f 71f
12:30 13 14 mph 1025.9mb 72f 71f
12:24 11 13 mph 1025.9mb 72f 71f
12:18 11 14 mph 1025.9mb 72f 72f
12:12 11 13 mph 1025.9mb 72f 72f
12:06 11 14 mph 1025.9mb 72f 71f
12:00 11 13 mph 1025.9mb 72f 71f
11:54 10
mph
1025.9mb 72f 72f
11:48 9 13 mph 1025.9mb 72f 73f
11:42 6 8 mph 1025.9mb 72f 73f
11:36 2 5 mph 1026mb 71f 73f
11:30 2 5 mph 1026mb 71f 74f
11:24 2 5 mph 1026mb 71f 73f
11:18 3 5 mph 1026mb 71f 72f
11:12 3 5 mph 1026mb 71f 72f
11:06 2 6 mph 1026.1mb 71f 72f
11:00 3 5 mph 1026.2mb 71f 71f
10:54 2 5 mph 1026.2mb 71f 71f
10:48 3 6 mph 1026.2mb 71f 71f
10:42 3 5 mph 1026.3mb 71f 71f
10:36 3 5 mph 1026.3mb 71f 70f
10:30 3 5 mph 1026.2mb 71f 70f
10:24 3 6 mph 1026.2mb 71f 70f
10:18 3 5 mph 1026.2mb 71f 69f
10:12 3 5 mph 1026.2mb 71f 69f
10:06 3 5 mph 1026.2mb 71f 69f
10:00 3 5 mph 1026.2mb 71f 68f
9:54 3 5 mph 1026.1mb 71f 68f
9:48 2 5 mph 1026.1mb 71f 69f
9:42 3 6 mph 1026.1mb 71f 68f
9:36 3 6 mph 1026.1mb 71f 67f
9:30 3 6 mph 1026.1mb 71f 67f
9:24 2 5 mph 1026mb 71f 68f
9:18 2 5 mph 1026mb 71f 67f
9:12 2 5 mph 1025.9mb 71f 67f
9:06 3 5 mph 1025.9mb 72f 66f
9:00 1 5 mph 1025.9mb 72f 66f
8:54 2 5 mph 1025.9mb 72f 65f
8:48 2 5 mph 1025.9mb 72f 65f
8:42 3 5 mph 1025.9mb 72f 64f
8:36 3 5 mph 1025.9mb 72f 64f
8:30 2 5 mph 1025.9mb 72f 64f
8:24 2 5 mph 1025.9mb 72f 63f
8:18 2 6 mph 1025.8mb 72f 63f
8:12 2 5 mph 1025.8mb 72f 63f
8:06 5 6 mph 1025.7mb 72f 62f
8:00 3 6 mph 1025.7mb 72f 62f
7:54 3 6 mph 1025.7mb 72f 62f
7:48 5 6 mph 1025.6mb 72f 61f
7:42 5 6 mph 1025.5mb 72f 61f
7:36 3 6 mph 1025.5mb 72f 61f
7:30 3 7 mph 1025.5mb 72f 61f
7:24 3 6 mph 1025.6mb 72f 61f
7:18 5 6 mph 1025.4mb 72f 61f
7:12 3 6 mph 1025.3mb 72f 60f
7:06 5 7 mph 1025.3mb 72f 60f
7:00 3 7 mph 1025.3mb 72f 60f
6:54 5 7 mph 1025.3mb 72f 59f
6:48 3 6 mph 1025.2mb 72f 59f
6:42 3 5 mph 1025.2mb 72f 59f
6:36 3 6 mph 1025.2mb 72f 58f
6:30 3 6 mph 1025mb 73f 58f
6:24 3 6 mph 1024.9mb 73f 57f
6:18 3 7 mph 1024.9mb 73f 57f
6:12 6 7 mph 1024.8mb 73f 57f
6:06 5 6 mph 1024.7mb 73f 57f
6:00 5 8 mph 1024.6mb 73f 57f
5:54 6 8 mph 1024.5mb 73f 57f
5:48 6 8 mph 1024.4mb 73f 57f
5:42 6 7 mph 1024.3mb 73f 57f
5:36 5 7 mph 1024.2mb 73f 58f
5:30 5 8 mph 1024.2mb 73f 58f
5:24 6 8 mph 1024.2mb 73f 58f
5:18 5 8 mph 1024.1mb 73f 58f
5:12 5 6 mph 1024mb 72f 58f
5:06 5 7 mph 1023.9mb 72f 58f
5:00 5 7 mph 1023.8mb 72f 58f
4:54 5 6 mph 1023.7mb 72f 58f
4:48 5 7 mph 1023.6mb 72f 58f
4:42 3 6 mph 1023.6mb 73f 58f
4:36 3 7 mph 1023.6mb 73f 58f
4:30 6 7 mph 1023.5mb 73f 58f
4:24 3 7 mph 1023.5mb 73f 59f
4:18 5 8 mph 1023.4mb 73f 59f
4:12 5 7 mph 1023.4mb 73f 59f
4:06 5 7 mph 1023.3mb 73f 59f
4:00 5 7 mph 1023.2mb 73f 59f
3:54 5 7 mph 1023.1mb 73f 59f
3:48 5 6 mph 1023.2mb 73f 59f
3:42 5 6 mph 1023.3mb 73f 59f
3:36 3 6 mph 1023.3mb 73f 60f
3:30 5 6 mph 1023.2mb 73f 60f
3:24 3 7 mph 1023.2mb 73f 60f
3:18 5 6 mph 1023.2mb 73f 60f
3:12 5 6 mph 1023.1mb 73f 60f
3:06 3 6 mph 1023.1mb 73f 60f
3:00 5 7 mph 1023.1mb 73f 60f
2:54 5 7 mph 1023.1mb 73f 61f
2:48 3 6 mph 1023.1mb 73f -
2:42 3 6 mph 1023.1mb 73f -
2:36 2 3 mph 1023.1mb 73f -
2:30 3
mph
1023.2mb 73f 60f
2:24 3 5 mph 1023.2mb 73f 60f
2:18 3 6 mph 1023.2mb 73f 60f
2:12 5 6 mph 1023.2mb 73f 60f
2:06 3 5 mph 1023.2mb 73f 60f
2:00 3 5 mph 1023.1mb 73f 61f
1:54 5
mph
1023.1mb 73f 61f
1:48 3
mph
1023mb - -
1:42 3
mph
1023mb - -
1:36 5 6 mph 1022.9mb - -
1:30 6
mph
1022.9mb 73f 61f
1:24 5
mph
1022.8mb 73f 62f
1:18 2 3 mph 1022.8mb 73f 62f
1:12 3
mph
1022.7mb 73f 62f
1:06 2 3 mph 1022.7mb 73f 62f
1:00 2 3 mph 1022.7mb 73f 62f
12:54 2
mph
1022.7mb 73f 62f
12:48 2 3 mph 1022.6mb 73f 63f
12:42 1 2 mph 1022.6mb 73f 62f
12:36  -  5 mph 1022.5mb 73f 63f
12:30 5
mph
1022.5mb 73f 63f
12:24  -  3 mph 1022.5mb 73f 63f
12:18  -  3 mph 1022.4mb 73f 63f
12:12 1 2 mph 1022.3mb 72f 64f
12:06 1 2 mph 1022.3mb 72f 64f
12:00 1 3 mph 1022.2mb 72f 64f
lun 08/22 11:54 2 3 mph 1022.2mb 72f 64f
11:48 3 5 mph 1022.1mb 72f 64f
11:42 3 6 mph 1022mb 72f 64f
11:36 6 7 mph 1022mb 72f 65f
11:30 5 7 mph 1021.9mb 72f 64f
11:24 3 5 mph 1021.9mb 72f 64f
11:18 1 2 mph 1021.7mb 72f 64f
11:12 2
mph
1021.6mb 71f 65f
11:06 3 5 mph 1021.5mb 72f 65f
11:00 3 6 mph 1021.5mb 72f 65f
10:54 5 6 mph 1021.5mb 72f 65f
10:48 2 6 mph 1021.4mb 72f 65f
10:42 5 8 mph 1021.3mb 71f 66f
10:36 6 7 mph 1021.2mb 72f 66f
10:30 5 6 mph 1021.1mb 71f 66f
10:24 5 7 mph 1021.1mb 72f 66f
10:18 6 8 mph - 73f 66f
10:12 6 8 mph - 73f 67f
10:06 5 7 mph - 72f 66f
10:00  -  mph 1020.8mb 72f 67f
9:54  -  mph 1020.7mb 72f 67f
9:48 2 5 mph 1020.7mb 72f 67f
9:42 2 6 mph 1020.6mb 73f 67f
9:36 2 5 mph 1020.5mb 72f 67f
9:30 2 6 mph 1020.4mb 72f 67f
9:24 3 6 mph 1020.3mb 73f 68f
9:18  -  mph 1020.1mb 74f 68f
9:12  -  mph 1020mb 74f 68f
9:06  -  mph 1019.9mb 74f 68f
9:00  -  mph 1019.7mb 74f 68f
8:54  -  mph 1019.6mb 74f 68f
8:48 3 11 mph 1019.5mb 74f 69f
8:42 3 7 mph 1019.3mb 74f 69f
8:36 5 8 mph 1019.2mb 74f 69f
8:30 5 9 mph - 74f 69f
8:24 3 8 mph - 74f 69f
8:18 6 9 mph 1018.7mb 74f 70f
8:12 3 9 mph 1018.6mb 74f 70f
8:06 3 7 mph 1018.4mb 74f 70f
8:00 3 8 mph 1018.2mb 74f 70f
7:54 5 9 mph 1018.1mb 74f 71f
7:48  -  mph 1018mb 74f -
7:42  -  mph 1017.9mb 74f -
7:36  -  mph 1017.8mb 74f -
7:30 5 9 mph 1017.6mb 74f 72f
7:24 6 14 mph 1017.5mb 74f 72f
7:18  -  mph 1017.4mb 74f 72f
7:12  -  mph 1017.2mb 74f 73f
7:06  -  mph 1017.1mb 74f 73f
7:00  -  mph 1017mb 74f 73f
6:54  -  mph 1016.9mb 74f 73f
6:48 9 16 mph - 74f -
6:42 5 11 mph - 74f -
6:36 6 9 mph - 74f -
6:30 6 11 mph - 74f 75f
6:24 5 14 mph - 74f 76f
6:18 8 15 mph - 74f 75f
6:12 6 10 mph - 74f 75f
6:06 7 14 mph - 74f 76f
6:00 7 16 mph 1015.9mb 74f 76f
5:54 6 13 mph 1015.8mb 74f 76f
5:48 7 13 mph - 74f 77f
5:42 6 11 mph - 74f 77f
5:36 7 14 mph - 74f 76f
5:30 8 14 mph 1015.3mb 74f 77f
5:24 5 11 mph 1015.2mb 74f 77f
5:18 8 17 mph 1015.2mb 75f 77f
5:12 13 17 mph 1015.2mb 75f 76f
5:06 8 14 mph 1015.1mb 74f 77f
5:00 6 13 mph 1015mb 74f 78f
4:54 6 15 mph 1014.8mb 74f 78f
4:48 9 16 mph 1014.8mb 74f 77f
4:42 7 13 mph 1014.7mb 74f 78f
4:36 6 15 mph 1014.7mb 74f 78f
4:30 8 17 mph 1014.6mb 75f 78f
4:24 9 15 mph 1014.5mb 75f 78f
4:18 11 20 mph 1014.5mb 75f 78f
4:12 6 10 mph 1014.4mb 75f 79f
4:06 5 9 mph 1014.3mb 75f 79f
4:00 7 14 mph 1014.2mb 75f 78f
3:54 7 14 mph 1014.1mb 75f 78f
3:48 6 20 mph 1014.1mb 75f 78f
3:42 9 15 mph 1014mb 75f 78f
3:36 8 16 mph 1013.9mb 75f 78f
3:30 9 21 mph 1013.9mb 75f 78f
3:24 8 13 mph 1013.8mb 75f 79f
3:18 9 17 mph 1013.8mb 75f 78f
3:12 10 18 mph 1013.7mb 75f 77f
3:06 13 17 mph 1013.7mb 75f 77f
3:00 13 18 mph 1013.6mb 75f 77f
2:54 11 16 mph 1013.6mb 75f 77f
2:48 8 17 mph 1013.6mb - -
2:42 13 20 mph 1013.5mb - -
2:36 10 14 mph 1013.5mb - -
2:30 9 14 mph 1013.5mb - -
2:24 8 17 mph 1013.5mb - -
2:18 8 13 mph 1013.6mb 73f 78f
2:12 11 18 mph 1013.5mb 73f 77f
2:06 13 18 mph 1013.5mb 73f 78f
2:00 6 18 mph 1013.4mb 73f 79f
1:54 9 17 mph 1013.4mb 73f 78f
1:48 8 14 mph 1013.4mb 73f 78f
1:42 8 11 mph 1013.4mb 73f 77f
1:36 7 14 mph 1013.3mb 73f 78f
1:30 9 15 mph 1013.3mb 73f 77f
1:24 7 16 mph 1013.3mb 73f 78f
1:18 9 16 mph 1013.3mb 73f 78f
1:12 8 15 mph 1013.2mb 72f 78f
1:06 6 15 mph 1013.1mb 73f 78f
1:00 9 16 mph 1013.1mb 73f 77f
12:54 10 18 mph 1013mb 73f 76f
12:48 14 20 mph 1013mb 73f 76f
12:42 14 20 mph 1012.9mb 73f 76f
12:36 10 15 mph 1012.9mb 73f 77f
12:30 9 16 mph 1012.9mb 73f 77f
12:24 9 14 mph 1013mb 73f 76f
12:18 9 15 mph 1013mb 73f 77f
12:12 8 17 mph 1013mb 74f 76f
12:06 9 17 mph 1013.1mb 74f 76f
12:00 7 15 mph 1013.1mb 74f 76f
11:54 7 13 mph 1013mb 74f 76f
11:48 8 13 mph 1012.9mb 73f 76f
11:42 8 15 mph 1012.9mb 73f 76f
11:36 14 20 mph 1012.8mb 73f 75f
11:30 13 17 mph 1012.8mb 73f 75f
11:24 10 18 mph 1012.8mb 73f 75f
11:18 10 17 mph 1012.8mb 73f 75f
11:12 7 17 mph 1012.7mb 73f 75f
11:06 6 14 mph 1012.8mb 73f 76f
11:00 10 17 mph 1012.7mb 73f 74f
10:54 13 20 mph 1012.7mb 72f 74f
10:48 11 22 mph 1012.6mb 72f 74f
10:42 11 18 mph 1012.6mb 73f 73f
10:36 14 18 mph 1012.6mb 73f 73f
10:30 10 21 mph 1012.5mb 72f 73f
10:24 14 22 mph 1012.4mb 72f 73f
10:18 11 20 mph 1012.3mb 72f 73f
10:12 11 20 mph 1012.3mb 72f 73f
10:06 10 15 mph 1012.3mb 72f 73f
10:00 9 15 mph 1012.2mb 72f 73f
9:54 8 15 mph 1012.1mb 72f 73f
9:48 8 14 mph 1012mb 72f 73f
9:42 8 16 mph 1012mb 72f 73f
9:36 10 18 mph 1012mb 73f 73f
9:30 9 16 mph 1011.9mb 74f 72f
9:24 13 16 mph 1011.8mb 74f 72f
9:18 9 15 mph 1011.8mb 74f 72f
9:12 10 14 mph 1011.7mb 74f 72f
9:06 9 16 mph 1011.6mb 72f 72f
9:00 9 15 mph 1011.5mb 73f 72f
8:54 8 13 mph 1011.3mb 72f 72f
8:48 10 16 mph 1011.2mb 72f 71f
8:42 9 14 mph 1011.2mb 72f 71f
8:36 8 13 mph 1011.2mb 73f 71f
8:30 8 13 mph 1011.1mb 73f 71f
8:24 7 10 mph 1011.1mb 74f 71f
8:18 8 13 mph 1011.1mb 74f 71f
8:12 7 14 mph 1011mb 74f 70f
8:06 6 10 mph 1011mb 74f 70f
8:00 7 14 mph 1010.8mb 74f 70f
7:54 7 10 mph 1010.8mb 74f 70f
7:48 5 8 mph 1010.7mb 74f 70f
7:42 3 7 mph 1010.7mb 74f 70f
7:36 3 9 mph 1010.7mb 74f 70f
7:30 3 7 mph 1010.6mb 74f 70f
7:24 2 6 mph 1010.5mb 74f 71f
7:18 3 7 mph 1010.4mb 74f 70f
7:12 3 8 mph 1010.4mb 74f 69f
7:06 2 6 mph 1010.2mb 74f 70f
7:00 2 6 mph 1010.1mb 74f 69f
6:54 2 6 mph 1010mb 74f 69f
6:48 2 7 mph 1009.9mb 74f 69f
6:42 2 5 mph 1009.7mb 74f 68f
6:36 1 3 mph 1009.7mb 74f 68f
6:30 2 5 mph 1009.6mb 74f 67f
6:24 3 6 mph 1009.6mb 74f 67f
6:18 3 6 mph 1009.5mb 74f 67f
6:12 1 3 mph 1009.4mb 74f 67f
6:06 1 2 mph 1009.3mb 74f 67f
6:00 2 3 mph 1009.4mb 74f 67f
5:54  -  3 mph 1009.2mb 74f 67f
5:48 2 3 mph 1009.1mb 73f 68f
5:42 2 6 mph 1008.9mb 73f 68f
5:36 3 6 mph 1008.8mb 74f 68f
5:30 2 5 mph 1008.9mb 73f 68f
5:24 2 5 mph 1008.9mb 73f 68f
5:18 2 3 mph 1008.9mb 74f 68f
5:12 2 3 mph 1008.8mb 74f 68f
5:06 2 3 mph 1008.9mb 75f 68f
5:00 2 3 mph 1008.9mb 74f 69f
4:54 2 3 mph 1008.9mb 74f 69f
4:48 1 5 mph 1008.9mb 75f 69f
4:42 2 3 mph 1008.9mb 74f 69f
4:36 2
mph
1008.9mb 74f 69f
4:30  -  2 mph 1008.9mb 74f 69f
4:24 1 3 mph 1008.9mb 75f 69f
4:18 2 3 mph 1008.8mb 75f 70f
4:12 3 6 mph 1008.9mb 74f 69f
4:06 2 3 mph 1008.7mb 74f 69f
4:00  -  5 mph 1008.7mb 74f 69f
3:54 3 5 mph 1008.7mb 74f 69f
3:48 2 6 mph 1008.7mb 75f 69f
3:42 1 3 mph 1008.8mb 74f 69f
3:36 1 2 mph 1008.8mb 74f 69f
3:30 2 3 mph 1008.7mb 74f 70f
3:24 2 5 mph 1008.7mb 74f 70f
3:18 5 8 mph 1008.6mb 74f 70f
3:12 6 8 mph 1008.4mb 74f 70f
3:06 6 10 mph 1008.5mb 74f 71f
3:00 8 13 mph 1008.4mb 74f 71f
2:54 5 13 mph 1008.5mb 74f 71f
2:48 5 9 mph 1008.5mb 74f -
2:42 6 8 mph 1008.5mb 74f -
2:36 2 8 mph 1008.3mb 74f -
2:30 3 9 mph 1008.3mb 74f 73f
2:24 5 8 mph 1007.9mb 74f 73f
2:18 3 10 mph 1008mb 74f 73f
2:12 10 20 mph 1008.3mb 73f 74f
2:06 9 13 mph 1007.9mb 73f 75f
2:00 8 10 mph 1007.4mb 73f 74f
1:54 9 10 mph 1007.4mb 73f 74f
1:48 9 10 mph - - -
1:42 8 9 mph - - -
1:36 9 11 mph - - -
1:30 9 11 mph 1007.7mb 73f 74f
1:24 9 10 mph 1007.8mb 73f 74f
1:18 8 10 mph 1007.9mb 75f 74f
1:12 9 11 mph 1008mb 74f 75f
1:06 8 10 mph 1008mb 74f 75f
1:00 9 16 mph 1008mb 74f 76f
12:54 11 14 mph 1008mb 73f 76f
12:48 10 14 mph 1007.9mb 74f 76f
12:42 9 15 mph 1007.8mb 73f 76f
12:36 8 15 mph 1007.7mb 73f 76f
12:30 11 17 mph 1007.7mb 73f 76f
12:24 8 14 mph 1007.9mb 73f 76f
12:18 8 13 mph 1008.1mb 72f 76f
12:12 8 13 mph 1008.2mb 73f 76f
12:06 8 13 mph 1008.2mb 73f 76f
12:00 9 14 mph 1008.3mb 72f 76f
dom 08/21 11:54 9 13 mph 1008.4mb 72f 76f
11:48 10 14 mph 1008.6mb 72f 76f
11:42 9 13 mph 1008.6mb 72f 76f
11:36 10 15 mph 1008.7mb 72f 75f
11:30 11 14 mph 1008.6mb 72f 75f
11:24 10 13 mph 1008.7mb 73f 75f
11:18 10 14 mph 1008.7mb 73f 75f
11:12 9 13 mph 1008.8mb 73f 75f
11:06 9 13 mph 1008.9mb 73f 75f
11:00 9 11 mph 1009mb 73f 75f
10:54 9 14 mph 1009mb 73f 75f
10:48 9 13 mph 1009.2mb 74f 74f
10:42 9 11 mph 1009.2mb 75f 74f
10:36 9 11 mph 1009.2mb 74f 74f
10:30  -  mph 1009.3mb 74f 74f
10:24  -  mph 1009.4mb 74f 74f
10:18 9 14 mph 1009.4mb 75f 75f
10:12 10 14 mph 1009.5mb 75f 75f
10:06 9 11 mph 1009.5mb 74f 75f
10:00  -  mph 1009.5mb 75f 74f
9:54  -  mph 1009.5mb 73f 74f
9:48  -  mph - 74f -
9:42  -  mph - 75f -
9:36  -  mph - 75f -
9:30  -  mph 1009.3mb 75f 74f
9:24  -  mph 1009.4mb 75f 74f
9:18  -  mph - 75f 74f
9:12  -  mph - 76f 74f
9:06  -  mph - 75f 74f
9:00  -  mph 1009.8mb 75f 74f
8:54  -  mph 1009.9mb 75f 74f
8:48 7 13 mph - 74f 74f
8:42 8 13 mph - 74f 74f
8:36 8 13 mph - 73f 74f
8:30 9 16 mph - 73f 74f
8:24 10 14 mph - 73f 74f
8:18  -  mph - 73f 74f
8:12  -  mph - 74f 74f
8:06  -  mph - 75f 74f
8:00  -  mph 1010.2mb 75f 74f
7:54  -  mph 1010.2mb 75f 74f
7:48  -  mph 1010.2mb 75f -
7:42  -  mph 1010.2mb 75f -
7:36  -  mph 1010.2mb 76f -
7:30  -  mph 1010.2mb 76f 74f
7:24  -  mph 1010.1mb 75f 74f
7:18 8 13 mph 1010.1mb 75f 74f
7:12 9 13 mph 1010.1mb 75f 74f
7:06 8 14 mph 1010.1mb 75f 74f
7:00 8 15 mph 1010.1mb 74f 74f
6:54 9 14 mph 1010.1mb 76f 74f
6:48  -  mph - 76f -
6:42  -  mph - 76f -
6:36  -  mph - 76f -
6:30  -  mph 1010.1mb 76f 74f
6:24  -  mph 1010.2mb 75f 74f
6:18  -  mph 1010.2mb 76f 74f
6:12  -  mph 1010.2mb 75f 74f
6:06  -  mph 1010.2mb 75f 74f
6:00  -  mph 1010.2mb 76f 74f
5:54  -  mph 1010.3mb 75f 74f
5:48 11 15 mph - 75f 74f
5:42 9 14 mph - 75f 74f
5:36 10 15 mph - 75f 74f
5:30 10 14 mph 1010.4mb 74f 74f
5:24 11 16 mph 1010.5mb 74f 74f
5:18 10 15 mph 1010.6mb 74f 75f
5:12 11 16 mph 1010.5mb 73f 75f
5:06 9 14 mph 1010.5mb 73f 75f
5:00 11 17 mph 1010.5mb 74f 75f
4:54 10 17 mph 1010.5mb 74f 75f
4:48 11 16 mph 1010.5mb 74f 75f
4:42 11 17 mph 1010.5mb 73f 75f
4:36 11 18 mph 1010.5mb 73f 75f
4:30 11 16 mph 1010.7mb 73f 75f
4:24 11 15 mph 1010.7mb 73f 75f
4:18 10 18 mph 1010.8mb 73f 75f
4:12 10 15 mph 1010.8mb 73f 75f
4:06 10 16 mph 1010.7mb 73f 75f
4:00 13 17 mph 1010.8mb 73f 75f
3:54 10 16 mph 1010.9mb 73f 75f
3:48 11 15 mph 1010.9mb 75f 75f
3:42 8 13 mph 1010.9mb 75f 75f
3:36 13 15 mph 1011mb 75f 74f
3:30 10 11 mph 1011.1mb 75f 74f
3:24 11 18 mph 1011.2mb 76f 74f
3:18 13 16 mph 1011.2mb 76f 75f
3:12 11 15 mph 1011.2mb 76f 75f
3:06 11 17 mph 1011.3mb 75f 75f
3:00 11 15 mph 1011.3mb 74f 75f
2:54 11 16 mph 1011.4mb 75f 75f
2:48 11 16 mph 1011.5mb 75f 75f
2:42 15 20 mph 1011.6mb 75f 75f
2:36 10 16 mph 1011.6mb 74f 76f
2:30 11 18 mph 1011.7mb 74f 76f
2:24 11 17 mph 1011.7mb 74f 76f
2:18 14 18 mph 1011.7mb 75f 76f
2:12 13 18 mph 1011.8mb 76f 76f
2:06 14 17 mph 1011.9mb 75f 75f
2:00 10 18 mph 1012.1mb 75f 76f
1:54 13 18 mph 1012.2mb 74f 76f
1:48 13 16 mph 1012.3mb 73f 76f
1:42 13 17 mph 1012.3mb 73f 76f
1:36 10 17 mph 1012.3mb 72f 76f
1:30 10 16 mph 1012.4mb 72f 76f
1:24 10 15 mph 1012.5mb 72f 76f
1:18 11 17 mph 1012.5mb 72f 76f
1:12 10 17 mph 1012.4mb 72f 76f
1:06 11 17 mph 1012.5mb 73f 76f
1:00 13 16 mph 1012.6mb 73f 76f
12:54 13 17 mph 1012.7mb 73f 76f
12:48 11 18 mph 1012.8mb 72f 76f
12:42 13 17 mph 1012.9mb 72f 76f
12:36 10 17 mph 1012.8mb 72f 76f
12:30 9 17 mph 1012.9mb 72f 76f
12:24 10 14 mph 1013.1mb 72f 77f
12:18 10 15 mph 1013mb 73f 77f
12:12 11 14 mph 1012.9mb 73f 76f
12:06 13 16 mph 1012.9mb 73f 76f
12:00 9 16 mph 1013mb 73f 76f
11:54 14 18 mph 1013.1mb 73f 76f
11:48 14 18 mph 1013.2mb 72f 76f
11:42 14 18 mph 1013.3mb 72f 76f
11:36 11 16 mph 1013.3mb 72f 76f
11:30 11 15 mph 1013.2mb 72f 76f
11:24 9 15 mph 1013.3mb 73f 76f
11:18 8 16 mph 1013.2mb 73f 76f
11:12 9 15 mph 1013.4mb 73f 76f
11:06 10 17 mph 1013.5mb 72f 76f
11:00 10 17 mph 1013.6mb 72f 76f
10:54 8 17 mph 1013.7mb 73f 76f
10:48 13 18 mph 1013.6mb 72f 76f
10:42 10 16 mph 1013.6mb 73f 76f
10:36 10 14 mph 1013.5mb 75f 76f
10:30 9 14 mph 1013.6mb 74f 76f
10:24 13 17 mph 1013.7mb 74f 75f
10:18 10 14 mph 1013.8mb 74f 76f
10:12 10 17 mph 1013.8mb 74f 75f
10:06 10 15 mph 1013.8mb 74f 75f
10:00 11 17 mph 1013.8mb 74f 75f
9:54 9 17 mph 1013.8mb 73f 75f
9:48 11 20 mph 1013.8mb 73f 75f
9:42 9 15 mph 1013.6mb 73f 75f
9:36 13 18 mph 1013.7mb 72f 75f
9:30 11 14 mph 1013.8mb 72f 75f
9:24 13 15 mph 1013.7mb 72f 74f
9:18 9 15 mph 1013.7mb 72f 74f
9:12 9 14 mph 1013.7mb 72f 74f
9:06 9 17 mph 1013.7mb 72f 74f
9:00 13 17 mph 1013.9mb 72f 74f
8:54 11 14 mph 1013.8mb 72f 74f
8:48 8 11 mph 1013.9mb 72f 74f
8:42 9 13 mph 1014mb 71f 74f
8:36 8 10 mph 1014mb 71f 74f
8:30 7 13 mph 1014.1mb 74f 74f
8:24 8 14 mph 1014.1mb 74f 73f
8:18 13 17 mph 1014mb 74f 73f
8:12 13 16 mph 1013.9mb 72f 73f
8:06 9 13 mph 1014mb 72f 74f
8:00 9 11 mph 1013.9mb 72f 74f
7:54 9 11 mph 1013.9mb 72f 74f
7:48 8 13 mph 1013.8mb 72f 74f
7:42 8 13 mph 1013.8mb 72f 73f
7:36 9 13 mph 1013.8mb 73f 73f
7:30 7 9 mph 1013.7mb 74f 73f
7:24 7 10 mph 1013.6mb 74f 73f
7:18 8 13 mph 1013.5mb 74f 73f
7:12 6 13 mph 1013.5mb 75f 73f
7:06 7 10 mph 1013.4mb 75f 72f
7:00 8 11 mph 1013.4mb 75f 72f
6:54 7 10 mph 1013.4mb 75f 72f
6:48 7 8 mph 1013.3mb 75f 72f
6:42 7 10 mph 1013.3mb 75f 72f
6:36 8 11 mph 1013.4mb 75f 72f
6:30 7 9 mph 1013.4mb 75f 72f
6:24 9 11 mph 1013.5mb 75f 72f
6:18 8 10 mph 1013.6mb 75f 72f
6:12 6 9 mph 1013.6mb 75f 72f
6:06 8 9 mph 1013.5mb 75f 71f
6:00 7 9 mph 1013.4mb 75f 72f
5:54 6 9 mph 1013.4mb 74f 72f
5:48 7 13 mph 1013.4mb 75f 72f
5:42 7 10 mph 1013.4mb 75f 72f
5:36 6 9 mph 1013.5mb 75f 72f
5:30 8 10 mph 1013.4mb 75f 72f
5:24 7 10 mph 1013.4mb 75f 72f
5:18 6 10 mph 1013.4mb 75f 72f
5:12 7 9 mph 1013.4mb 74f 72f
5:06 9 11 mph 1013.4mb 74f 72f
5:00 8 9 mph 1013.4mb 74f 72f
4:54 7 8 mph 1013.5mb 74f 72f
4:48 6 8 mph 1013.5mb 74f 72f
4:42 7 10 mph 1013.4mb 73f 72f
4:36 7 9 mph 1013.3mb 73f 72f
4:30 7 10 mph 1013.3mb 74f 72f
4:24 7 9 mph 1013.3mb 74f 72f
4:18 6 10 mph 1013.3mb 74f 73f
4:12 8 10 mph 1013.4mb 74f 73f
4:06 6 9 mph 1013.5mb 74f 73f
4:00 7 10 mph 1013.6mb 74f 73f
3:54 5 8 mph 1013.8mb 74f 73f
3:48 5 8 mph 1013.8mb 74f 73f
3:42 7 9 mph 1013.7mb 74f 73f
3:36 6 9 mph 1013.6mb 74f 72f
3:30 6 8 mph 1013.7mb 74f 72f
3:24 6 9 mph 1013.8mb 75f 72f
3:18 7 9 mph 1013.8mb 74f 72f
3:12 6 9 mph 1013.8mb 74f 72f
3:06 6 8 mph 1013.9mb 74f 72f
3:00 6 8 mph 1013.9mb 74f 72f
2:54 5 7 mph 1014mb 74f 72f
2:48 6 9 mph 1014mb 74f 73f
2:42 6 8 mph 1014mb 74f 73f
2:36 8 10 mph 1014mb 74f 73f
2:30 7 10 mph 1014.1mb 74f 73f
2:24 8 11 mph 1014.2mb 74f 73f
2:18 8 13 mph 1014.3mb 74f 73f
2:12 6 9 mph 1014.3mb 75f 73f
2:06 7 9 mph 1014.3mb 74f 73f
2:00 7 11 mph 1014.4mb 74f 73f
1:54 7 9 mph 1014.4mb 75f 73f
1:48 7 10 mph 1014.4mb 75f -
1:42 7 11 mph 1014.5mb 74f -
1:36 8 10 mph 1014.5mb 74f -
1:30 6 9 mph 1014.5mb 74f 73f
1:24 7 9 mph 1014.6mb 74f 73f
1:18 8 10 mph 1014.6mb 73f 73f
1:12 6 10 mph 1014.6mb 73f 73f
1:06 8 11 mph 1014.6mb 73f 73f
1:00 8 9 mph 1014.7mb 73f 73f
12:54 7 9 mph 1014.7mb 73f 73f
12:48 6 8 mph 1014.8mb 74f 73f
12:42 6 9 mph 1014.8mb 74f 73f
12:36 6 9 mph 1014.8mb 74f 73f
12:30 6 8 mph 1014.8mb 74f 73f
12:24 6 8 mph 1014.9mb 74f 73f
12:18 6 7 mph 1014.8mb 74f 73f
12:12 5 7 mph 1014.9mb 73f 73f
12:06 6 7 mph 1014.9mb 74f 73f
12:00 6 8 mph 1014.9mb 74f 73f
sáb 08/20 11:54 6 9 mph 1014.8mb 73f 73f
11:48 5 8 mph 1014.9mb 73f 73f
11:42 5 8 mph 1014.9mb 74f 73f
11:36 5 7 mph 1014.9mb 73f 73f
11:30 6 8 mph 1014.8mb 73f 73f
11:24 7 9 mph 1014.8mb 73f 73f
11:18 6 9 mph 1014.9mb 73f 73f
11:12 8 9 mph 1014.9mb 73f 73f
11:06 7 9 mph 1014.9mb 73f 73f
11:00 6 9 mph 1014.9mb 73f 73f
10:54 7 9 mph 1014.8mb 73f 73f
10:48 7 10 mph 1014.9mb 73f 73f
10:42 6 10 mph 1014.9mb 74f 73f
10:36 7 8 mph 1014.8mb 74f 73f
10:30 8 11 mph - 74f 73f
10:24 6 8 mph - 74f 73f
10:18 6 10 mph 1014.7mb 74f 73f
10:12 7 10 mph 1014.7mb 74f 73f
10:06 6 8 mph 1014.7mb 75f 73f
10:00  -  mph 1014.7mb 75f 73f
9:54  -  mph 1014.7mb 75f 73f
9:48  -  mph - 75f 73f
9:42  -  mph - 75f 73f
9:36  -  mph - 75f 73f